Location: Newark
(51.0089°N, 21.5817°E)
Time: 06:43:30
(UTC+00:00)

XW-2F - Pass Details

Date: 21 February 2020
Orbit: 503 x 521 km, 97.5° (Epoch: 04 April)

Event Time Altitude Azimuth Distance (km) Brightness Sun altitude
Rises 03:37:51 0° 29° (NNE) 2,630 ? -19.3°
Reaches altitude 10° 03:40:44 10° 54° (NE) 1,741 ? -18.8°
Maximum altitude 03:42:55 15° 90° (E) 1,455 ? -18.5°
Drops below altitude 10° 03:45:07 10° 126° (SE) 1,738 ? -18.1°
Sets 03:47:59 0° 150° (SSE) 2,622 ? -17.7°
